Location: Heisler
(52.6701°N, 112.2239°W)
Time: 16:03:59
(UTC+00:00)

N. Korean satellite - Pass Details

Date: 06 December 2021
Orbit: 446 x 492 km, 97.3° (Epoch: 16 January)

Event Time Altitude Azimuth Distance (km) Brightness Sun altitude
Rises 00:17:03 0° 186° (S) 2,525 10.7 -8.8°
Reaches altitude 10° 00:19:14 10° 195° (SSW) 1,642 9.9 -9.1°
Maximum altitude 00:22:29 35° 263° (W) 787 8.4 -9.5°
Drops below altitude 10° 00:25:44 10° 330° (NNW) 1,629 9.3 -10.0°
Sets 00:27:53 0° 340° (NNW) 2,502 10.1 -10.3°
